Flag for Norway Weather past 2 weeks in Leirvik, Norway

Now
52 °F

Broken clouds.


Feels Like: 49 °F
Forecast: 50 / 56 °F
Wind: 8 mph from Southeast

Location: Stord / Soerstokken

Current Time: Sep 23, 2014 at 12:52:15 PM

Latest Report: Sep 23, 2014 at 12:20 PM


Visibility: N/A

Pressure: 29.92 "Hg

Humidity: 82%

Dew point: 46 °F

Location of LeirvikLocation

Historic Weather in Leirvik — Graph

°F

Leirvik temperature yesterday

Maximum temperature yesterday: 57 °F (at 12:50 PM)
Minimum temperature yesterday: 46 °F (at 4:50 AM)
Average temperature yesterday: 51 °F

Past Weeks' High & Low Weather Summary

 TemperatureHumidityPressure
High72 °F (Sep 16, 2:20 PM)100% (Sep 9, 7:50 AM)30.45 "Hg (Sep 9, 7:50 AM)
Low46 °F (Sep 22, 4:50 AM)33% (Sep 16, 12:50 PM)29.83 "Hg (Sep 8, 10:20 AM)
Average59 °F69%30.15 "Hg
* Reported Sep 8 10:20 AM — Sep 23 10:50 AM, Leirvik, Weather by CustomWeather, © 2014

Note: Actual official high and low records may vary slightly from our data, if they occured in-between our weather recording intervals... More about our weather records

Advertising

Leirvik weather history for previous 24 hours

 ConditionsComfort  
Time TempWeatherWind HumidityBarometerVisibility
10:50 AM
Sep 23
50 °FSprinkles. Partly sunny.6 mph88%29.95 "HgN/A
9:50 AM48 °FPartly sunny.6 mph87%29.95 "HgN/A
9:20 AM48 °FPartly sunny.9 mph87%29.95 "HgN/A
8:50 AM48 °FPartly sunny.7 mph87%29.95 "HgN/A
8:20 AM48 °FPassing clouds.8 mph87%29.98 "HgN/A
7:20 AM48 °FRain. Partly cloudy.10 mph87%29.98 "HgN/A
6:50 AM48 °FSprinkles. Partly cloudy.7 mph87%29.98 "HgN/A
6:20 AM48 °FPartly cloudy.8 mph87%29.98 "HgN/A
5:50 AM48 °FPartly cloudy.7 mph82%29.98 "HgN/A
6:50 PM
Sep 22
52 °FSunny.7 mph72%30.07 "Hg10 mi
6:20 PM52 °FSunny.3 mph62%30.07 "Hg10 mi
5:50 PM54 °FSunny.6 mph58%30.07 "Hg10 mi
5:20 PM54 °FSunny.7 mph54%30.07 "Hg10 mi
3:50 PM55 °FSunny.8 mph51%30.09 "Hg10 mi
2:50 PM57 °FSunny.7 mph51%30.09 "Hg10 mi
1:50 PM55 °FSunny.6 mph51%30.09 "Hg10 mi
1:20 PM55 °FSunny.6 mph55%30.09 "Hg10 mi
12:50 PM57 °FSunny.6 mph55%30.09 "Hg10 mi
Weather by CustomWeather, © 2014

See weather overviewHow to use our weather pages